SL-14 DEB, 45294

Orbit data source: Space-Track

SL-14 DEB, 45294 is space debris in LEO originally from a launch on Thu, 15 Aug 1991 UTC launched from the Plesetsk Missile And Space Complex (PKMTR). Debris objects in space refer to the collection of defunct objects orbiting the Earth. Examples of debris include non-operational satellites, rocket bodies, and fragments generated from explosions, collisions, or faulty payload assembly.

Loading next visibility...
Identifier
45294, 1991-056AG
Orbit
LEO
Last TLE update
1 day ago
Origin
Manufacturer
Unknown
Mission
Spacecraft
Bus & Motor
Unknown
Mass
Unknown
Launch date (UTC)
1991-08-15 (34 years ago)
Launch vehicle
Unknown
Launch site
Plesetsk Missile And Space Complex (PKMTR)
Object type
Payload
Rocket body
Debris
Shape & HBR
Unknown
Radar Cross Section
Small (<0.1 m²)

Expand to show TLE details & history

TLE from 1 day ago
0 SL-14 DEB
1 45294U 91056AG  25180.80669975  .00000656  00000-0  15799-2 0  9991
2 45294  82.5679  26.5564 0011462 284.7292  75.2562 13.20884631257231
Epoch: 2025-06-29T19:21Z
TLE epoch observation values (Epoch: 2025-06-29T19:21:38.858Z)
Latitude
-0.00002°
Longitude
178.01892°
Altitude
1,181.96 km
Speed
7.264 km/s
True Right ascension
01h 46m 13s
True Declination
0° 00' 00"
Sunlit
Object was in daylight at epoch
Visualization orbit readout
Latitude
31.42243°
Longitude
-178.35231°
Altitude
1,188.246 km
Speed
7.261 km/s
Apparent Right ascension
02h 01m 33s
Apparent Declination
0° 44' 00"
Sunlit
Object is in daylight
Visualization observer readout
Local Sidereal Time
14:02:37
Azimuth
0.424° NNE
Elevation
-50.816°
Doppler factor
1
Orbital elements
Apogee altitude
1,187.243 km
Perigee altitude
1,169.92 km
Semi-major axis
7,556.719 km
Eccentricity
0.00115
Inclination
82.5679°
RAAN
26.5564°
Arg. of periapsis
284.7292°
True anomaly
Unknown
Mean anomaly
75.2562°
Eccentric anomaly
Unknown
Mean motion
3.30402 °/min
Orbital period
108.96 mins
BSTAR
0.0015799
Loading maneuver chart data...
Loading SW <> Apogee altitude chart data...
Loading historical data...
Loading historical data...
Loading historical data...
Loading historical data...
Loading historical data...
Loading historical data...
Loading historical data...

SL-14 DEB Visibility forecast

Observer location: undefined°, undefined°

Span
Click to sort rows by Start time (UTC) header in descending order
Start Az.
Max El. time (UTC)
Max El. Az.
Max El.
End time (UTC)
End Az.
10 mins2025-07-01 02:53:29.575Z323.177° NNW2025-07-01 02:58:29.575Z273.609° WNW23.323°2025-07-01 03:03:29.575Z226.714° WSW
11 mins2025-07-01 13:17:29.575Z139.339° SSE2025-07-01 13:22:29.575Z85.988° E27.835°2025-07-01 13:28:29.575Z27.823° NE
12 mins2025-07-01 15:06:29.575Z217.032° SW2025-07-01 15:12:29.575Z292.236° WNW34.998°2025-07-01 15:18:29.575Z353.761° N
12 mins2025-07-02 00:41:29.575Z11.77° NNE2025-07-02 00:46:29.575Z71.587° E34.432°2025-07-02 00:53:29.575Z146.038° SSE
|